User: anonymous   Login
Location: Unspecified
(0.0000°N, 0.0000°E)
Time: 07:12:44
(UTC+00:00)
Language:

FALCON 9 R/B - Orbit

View from above orbital plane
View from above orbital plane
View from above satellite
View from above satellite

Ground track
Ground track

The orbit data is extracted from the following two-line orbital elements,

1 37253U 10066K   16241.52811450  .00001895  00000-0  16447-3 0  9991
2 37253  34.5424  66.9055 4295633 289.1605  30.0185  6.87419140140415
Epoch (UTC): 28 August 2016 12:40:29
Eccentricity: 0.4295633
inclination: 34.5424°
perigee height: 287 km
apogee height: 10324 km
right ascension of ascending node: 66.9055°
argument of perigee: 289.1605°
revolutions per day: 6.87419140
mean anomaly at epoch: 30.0185°
orbit number at epoch: 14041

The dashed part of the orbit path shows where the satellite is in the earth's shadow,  

DLR